FW3182 Weather Reports


time (UTC)temp
F
wind
direction
speed
knots
gust
knots
rain 1hr
in
rain 24hr
in
rain mn
in
humidity
%
barometer
mb
20260505230704 48 3 1.7 4.3 0.00 0.39 0.39 91 1007.1
20260505230204 48 324 1.7 7.0 0.00 0.39 0.39 92 1007.1
20260505224704 48 342 1.7 6.1 0.00 0.39 0.39 92 1007.1
20260505224203 48 344 2.6 10.4 0.00 0.39 0.39 91 1007.0
20260505223703 48 23 0.9 7.8 0.00 0.39 0.39 92 1007.3
20260505223204 48 321 2.6 10.4 0.00 0.39 0.39 92 1007.3
20260505221704 49 17 2.6 5.2 0.00 0.39 0.39 93 1006.8
20260505221203 49 20 2.6 8.7 0.00 0.39 0.39 93 1006.6
20260505220704 49 342 0.9 4.3 0.00 0.39 0.39 94 1006.6
20260505220204 49 357 1.7 6.1 0.00 0.39 0.39 94 1006.7
20260505215704 49 349 2.6 7.8 0.00 0.39 0.39 94 1006.8
20260505215203 49 339 0.9 2.6 0.00 0.39 0.39 95 1006.7
20260505214204 49 333 1.7 4.3 0.00 0.39 0.39 95 1006.6
20260505213704 50 298 1.7 5.2 0.00 0.39 0.39 95 1006.6
20260505213204 50 6 3.5 10.4 0.00 0.39 0.39 95 1006.5
20260505212205 50 298 1.7 5.2 0.00 0.39 0.39 96 1006.4
20260505211204 51 20 1.7 7.8 0.00 0.39 0.39 96 1006.4
20260505210704 51 4 1.7 5.2 0.00 0.39 0.39 96 1006.4
20260505210204 51 26 1.7 7.8 0.00 0.39 0.39 96 1006.2
20260505205703 51 76 0.9 7.0 0.00 0.39 0.39 96 1006.2
20260505204704 51 47 2.6 7.8 0.00 0.39 0.39 95 1006.5
20260505204203 51 46 2.6 8.7 0.00 0.39 0.39 95 1006.6
20260505203703 51 302 2.6 8.7 0.01 0.39 0.39 95 1006.9
20260505203204 51 270 1.7 4.3 0.01 0.39 0.39 95 1006.8
20260505202704 51 295 1.7 5.2 0.01 0.39 0.39 96 1006.5
20260505202204 51 287 1.7 4.3 0.01 0.39 0.39 96 1006.0
20260505201703 52 59 0.9 4.3 0.01 0.39 0.39 96 1006.0
20260505201204 52 29 3.5 10.4 0.01 0.39 0.39 95 1005.8
20260505200203 52 36 1.7 6.1 0.01 0.39 0.39 95 1005.8
20260505195704 52 49 1.7 6.1 0.01 0.39 0.39 95 1005.7
20260505194703 53 357 2.6 7.0 0.02 0.39 0.39 95 1005.8
20260505194203 53 43 0.9 4.3 0.02 0.39 0.39 95 1006.0
20260505193204 53 309 0.9 4.3 0.01 0.38 0.38 95 1006.3
20260505192204 53 318 0.9 5.2 0.01 0.38 0.38 95 1006.2
20260505191703 54 282 0.9 2.6 0.01 0.38 0.38 95 1006.1
20260505191203 54 4 2.6 7.8 0.01 0.38 0.38 95 1005.9
20260505190704 54 45 0.9 7.0 0.01 0.38 0.38 95 1005.7
20260505190204 54 336 3.5 8.7 0.01 0.38 0.38 94 1005.5
20260505185703 54 28 2.6 7.0 0.01 0.38 0.38 94 1005.4
20260505185204 54 338 1.7 8.7 0.01 0.38 0.38 93 1005.6
20260505184704 55 3 1.7 4.3 0.00 0.37 0.37 93 1005.8
20260505184203 55 17 0.0 8.7 0.00 0.37 0.37 94 1005.9
20260505183704 55 12 2.6 7.0 0.00 0.37 0.37 93 1005.7
20260505183204 55 326 1.7 5.2 0.00 0.37 0.37 92 1005.7
20260505182704 55 340 1.7 4.3 0.00 0.37 0.37 91 1005.7
20260505182204 55 68 1.7 4.3 0.00 0.37 0.37 91 1005.7
20260505181704 56 9 1.7 5.2 0.00 0.37 0.37 90 1005.6
20260505181204 56 343 0.9 2.6 0.00 0.37 0.37 91 1005.6
20260505180704 56 12 1.7 6.1 0.00 0.37 0.37 90 1005.5
20260505180204 56 314 1.7 5.2 0.00 0.37 0.37 90 1005.5
20260505175704 56 7 1.7 6.1 0.00 0.37 0.37 89 1005.5
20260505175203 56 348 1.7 2.6 0.00 0.37 0.37 89 1005.4
20260505174704 57 345 2.6 11.3 0.00 0.37 0.37 88 1005.3
20260505173704 57 5 2.6 7.0 0.00 0.37 0.37 89 1005.1
20260505172704 58 39 1.7 5.2 0.00 0.37 0.37 90 1005.1
20260505171704 58 25 2.6 5.2 0.00 0.37 0.37 90 1005.0
20260505171204 59 323 1.7 5.2 0.00 0.37 0.37 89 1005.0
20260505170704 59 14 2.6 7.8 0.00 0.37 0.37 89 1004.9
20260505170203 59 323 2.6 8.7 0.00 0.37 0.37 90 1004.9
20260505165704 60 313 3.5 7.0 0.00 0.37 0.37 90 1004.9
20260505164704 60 42 3.5 7.8 0.00 0.37 0.37 91 1004.9
20260505163704 60 42 1.7 5.2 0.00 0.37 0.37 93 1005.0
20260505162203 61 24 0.9 2.6 0.00 0.37 0.37 94 1005.0
20260505161204 60 15 1.7 6.1 0.00 0.37 0.37 94 1005.2
20260505160703 61 319 0.9 2.6 0.00 0.37 0.37 95 1005.1
20260505160206 61 60 0.9 2.6 0.00 0.37 0.37 96 1005.1
20260505153204 62 14 1.7 5.2 0.00 0.37 0.37 97 1004.0
20260505151204 62 47 2.6 5.2 0.00 0.37 0.37 100 1004.1
20260505150704 62 44 0.9 6.1 0.00 0.37 0.37 100 1004.2
20260505150204 61 325 1.7 5.2 0.00 0.37 0.37 100 1004.4
20260505130203 59 17 1.7 2.6 0.00 0.37 0.37 100 1004.4
20260505124203 59 23 0.9 2.6 0.00 0.37 0.37 100 1004.0
20260505123704 58 28 0.0 2.6 0.00 0.37 0.37 100 1004.2
20260505123204 58 62 0.0 0.9 0.00 0.37 0.37 100 1004.2
20260505122203 58 73 0.0 1.7 0.00 0.37 0.37 100 1004.0
20260505121704 58 73 0.0 2.6 0.00 0.37 0.37 100 1004.0
20260505121204 58 42 1.7 2.6 0.00 0.37 0.37 100 1004.0
20260505120704 58 24 0.0 0.9 0.00 0.37 0.37 100 1004.0
20260505115703 58 9 0.0 0.0 0.00 0.37 0.37 100 1004.1
20260505115204 58 9 0.0 0.0 0.00 0.37 0.37 100 1004.1
20260505114703 58 9 0.0 1.7 0.00 0.37 0.37 100 1003.7
20260505114203 58 51 0.0 0.9 0.00 0.37 0.37 100 1003.7
20260505113704 58 51 0.9 1.7 0.00 0.37 0.37 100 1003.8
20260505112204 58 32 2.6 7.0 0.00 0.37 0.37 100 1003.3
20260505111705 58 45 2.6 5.2 0.00 0.37 0.37 100 1003.5
20260505111204 59 302 0.9 2.6 0.00 0.37 0.37 100 1003.8
20260505110203 59 322 0.9 2.6 0.01 0.37 0.37 100 1003.5
20260505102204 59 136 0.0 1.7 0.03 0.37 0.37 100 1002.6
20260505101704 59 208 0.0 1.7 0.04 0.37 0.37 100 1002.8
20260505100703 59 117 0.0 2.6 0.05 0.37 0.37 100 1003.0
20260505100204 59 200 1.7 2.6 0.05 0.36 0.36 100 1003.0
20260505095704 59 176 0.0 2.6 0.07 0.36 0.36 100 1002.6
20260505095203 59 147 0.9 2.6 0.08 0.36 0.36 100 1002.7
20260505094703 59 220 0.0 0.9 0.09 0.36 0.36 100 1002.9
20260505094204 59 95 0.9 2.6 0.11 0.36 0.36 100 1002.9
20260505093703 59 143 0.9 2.6 0.12 0.35 0.35 100 1003.0
20260505093204 59 124 0.0 1.7 0.15 0.35 0.35 100 1003.1
20260505092703 59 148 0.0 1.7 0.17 0.35 0.35 100 1003.3
20260505092204 59 205 0.9 1.7 0.18 0.34 0.34 100 1004.0
20260505091704 59 258 0.0 0.9 0.18 0.33 0.33 100 1004.0
20260505090704 59 267 0.0 0.0 0.21 0.32 0.32 97 1003.4
20260505090203 59 267 0.0 0.9 0.23 0.31 0.31 97 1003.7
20260505085703 59 264 0.9 2.6 0.24 0.29 0.29 97 1003.9
20260505085204 60 276 1.7 5.2 0.25 0.28 0.28 97 1004.1
20260505084703 60 255 5.2 10.4 0.26 0.27 0.27 97 1004.2
20260505083704 60 264 2.6 6.1 0.23 0.23 0.23 97 1004.0
20260505082204 60 271 4.3 8.7 0.16 0.16 0.16 96 1004.0
20260505081704 60 268 4.3 10.4 0.15 0.15 0.15 95 1004.1
20260505081203 60 269 1.7 6.1 0.13 0.13 0.13 94 1004.2
20260505080703 60 248 3.5 8.7 0.11 0.11 0.11 93 1004.5
20260505080204 61 272 2.6 7.0 0.08 0.08 0.08 91 1004.3
20260505075704 61 250 1.7 4.3 0.05 0.05 0.05 89 1004.2
20260505075203 61 264 1.7 5.2 0.03 0.03 0.03 87 1004.2
20260505074704 62 262 1.7 4.3 0.01 0.01 0.01 85 1003.8
20260505074204 62 244 1.7 2.6 0.00 0.00 0.00 83 1003.9
20260505073703 63 201 0.9 4.3 0.00 0.00 0.00 81 1003.9
20260505073203 63 158 1.7 5.2 0.00 0.00 0.00 80 1003.8
20260505072704 63 226 1.7 5.2 0.00 0.00 0.00 79 1003.8
20260505072204 63 141 0.9 2.6 0.00 0.00 0.00 79 1003.5
20260505071703 63 189 2.6 6.1 0.00 0.00 0.00 79 1003.7
20260505071204 63 166 1.7 2.6 0.00 0.00 0.00 79 1003.6
20260505070704 63 217 0.9 2.6 0.00 0.00 0.00 79 1003.6
20260505065704 63 225 0.0 2.6 0.00 0.00 0.00 78 1003.5
20260505065204 63 188 0.9 1.7 0.00 0.00 0.00 78 1003.6
20260505064703 63 189 0.0 1.7 0.00 0.00 0.00 78 1003.7
20260505064203 63 146 0.9 2.6 0.00 0.00 0.00 78 1003.8
20260505063704 63 187 0.9 2.6 0.00 0.00 0.00 78 1004.0
20260505063204 63 212 0.9 1.7 0.00 0.00 0.00 78 1004.0
20260505062704 63 189 0.0 1.7 0.00 0.00 0.00 78 1004.0
20260505062204 63 192 0.9 1.7 0.00 0.00 0.00 78 1004.0
20260505061704 63 182 0.9 2.6 0.00 0.00 0.00 78 1004.2
20260505061204 63 137 0.0 1.7 0.00 0.00 0.00 77 1004.2
20260505060204 63 198 0.9 2.6 0.00 0.00 0.00 77 1004.4
20260505055703 63 205 0.9 2.6 0.00 0.00 0.00 77 1004.3
20260505055204 63 182 0.9 2.6 0.00 0.00 0.00 77 1004.2
20260505054703 64 207 1.7 5.2 0.00 0.00 0.00 77 1004.1
20260505054204 64 190 0.9 2.6 0.00 0.00 0.00 77 1004.1
20260505053704 64 197 0.9 2.6 0.00 0.00 0.00 77 1003.9
20260505053203 64 145 0.9 2.6 0.00 0.00 0.00 77 1003.9
20260505052704 64 184 1.7 5.2 0.00 0.00 0.00 76 1003.9
20260505051704 64 154 0.9 2.6 0.00 0.00 0.00 76 1004.1
20260505051204 64 168 0.0 2.6 0.00 0.00 0.00 76 1004.2
20260505050204 64 197 1.7 2.6 0.00 0.00 0.00 76 1004.5
20260505041204 65 189 0.9 1.7 0.00 0.00 0.00 74 1004.9
20260505040704 65 117 0.9 1.7 0.00 0.00 0.00 74 1005.0
20260505040204 65 134 0.9 4.3 0.00 0.00 0.00 73 1005.0
20260505035703 65 174 0.9 2.6 0.00 0.00 0.00 73 1005.0
20260505035204 66 132 0.0 1.7 0.00 0.00 0.00 73 1005.1
20260505033704 66 150 0.9 2.6 0.00 0.00 0.00 72 1005.2
20260505033204 66 144 0.0 0.9 0.00 0.00 0.00 72 1005.2
20260505032704 66 202 0.0 1.7 0.00 0.00 0.00 71 1005.1
20260505032204 67 138 0.0 1.7 0.00 0.00 0.00 71 1005.2
20260505031704 67 118 0.9 1.7 0.00 0.00 0.00 70 1005.2
20260505030203 68 139 0.0 0.9 0.00 0.00 0.00 68 1005.2
20260505025704 68 159 0.9 1.7 0.00 0.00 0.00 67 1005.1
20260505025203 69 137 0.0 1.7 0.00 0.00 0.00 67 1005.2
20260505024703 69 140 0.9 2.6 0.00 0.00 0.00 66 1005.1
20260505023704 69 185 1.7 5.2 0.00 0.00 0.00 66 1005.1
20260505023203 69 198 2.6 4.3 0.00 0.00 0.00 66 1004.9
20260505021703 69 193 1.7 5.2 0.00 0.00 0.00 65 1004.7
20260505021204 69 214 1.7 7.0 0.00 0.00 0.00 65 1004.5
20260505020704 70 204 2.6 5.2 0.00 0.00 0.00 65 1004.4
20260505020204 70 186 2.6 5.2 0.00 0.00 0.00 65 1004.3
20260505015204 70 183 0.9 7.0 0.00 0.00 0.00 65 1004.1
20260505014703 70 178 1.7 5.2 0.00 0.00 0.00 64 1004.2
20260505014204 70 192 3.5 7.0 0.00 0.00 0.00 64 1004.0
20260505013704 71 163 1.7 2.6 0.00 0.00 0.00 64 1004.0
20260505013203 71 133 0.9 2.6 0.00 0.00 0.00 63 1003.8
20260505012203 71 176 2.6 7.8 0.00 0.00 0.00 63 1003.9
20260505011704 71 184 0.9 5.2 0.00 0.00 0.00 63 1003.9
20260505011204 71 202 0.9 1.7 0.00 0.00 0.00 62 1003.7
20260505010704 72 147 0.9 1.7 0.00 0.00 0.00 62 1003.7
20260505010203 72 136 0.0 1.7 0.00 0.00 0.00 62 1003.7
20260505005704 72 184 0.0 1.7 0.00 0.00 0.00 61 1003.6
20260505005204 72 167 0.9 2.6 0.00 0.00 0.00 61 1003.6
20260505004704 73 192 0.0 1.7 0.00 0.00 0.00 60 1003.3
20260505004204 73 167 0.9 2.6 0.00 0.00 0.00 60 1003.2
20260505003203 73 172 1.7 4.3 0.00 0.00 0.00 58 1003.1
20260505002704 74 191 1.7 5.2 0.00 0.00 0.00 58 1003.0
20260505002204 74 199 2.6 6.1 0.00 0.00 0.00 57 1002.9
20260505001704 74 186 3.5 6.1 0.00 0.00 0.00 57 1003.0
20260505000704 75 148 1.7 6.1 0.00 0.00 0.00 56 1003.0
20260504235703 76 185 3.5 7.8 0.00 0.00 0.00 54 1002.9
20260504234204 77 169 2.6 10.4 0.00 0.00 0.00 53 1002.9
20260504233704 77 170 5.2 8.7 0.00 0.00 0.00 52 1003.0
20260504233203 78 191 4.3 10.4 0.00 0.00 0.00 52 1003.0
20260504232704 78 217 4.3 12.2 0.00 0.00 0.00 51 1003.1
20260504232204 78 154 4.3 13.9 0.00 0.00 0.00 50 1003.0
20260504231704 78 160 4.3 10.4 0.00 0.00 0.00 50 1003.1
20260504231204 79 153 5.2 14.8 0.00 0.00 0.00 49 1003.0